Home > Weather > Florianópolis > Past weeks

Flag for Brazil Past Weather in Florianópolis, Santa Catarina, Brazil — Yesterday and Last 2 Weeks

Now
55 °F

Passing clouds.


Feels Like: 53 °F
Forecast: 52 / 63 °F
Wind: 9 mph from North

Location: Florianopolis Aeroporto

Current Time: Jul 23, 2016 at 8:23:09 AM

Latest Report: Jul 23, 2016 at 8:00 AM


Visibility: N/A

Pressure: 30.18 "Hg

Humidity: 100%

Dew Point: 55 °F

Location of FlorianópolisLocation

Past Weather in Florianópolis — Graph

°F

Florianópolis Temperature Yesterday

Maximum temperature yesterday: 64 °F (at 1:00 PM)
Minimum temperature yesterday: 45 °F (at 4:00 AM)
Average temperature yesterday: 54 °F

High & Low Weather Summary for the Past Weeks

 TemperatureHumidityPressure
High81 °F (Jul 12, 12:00 PM)100% (Jul 8, 7:00 AM)30.27 "Hg (Jul 8, 7:00 AM)
Low43 °F (Jul 16, 12:00 AM)45% (Jul 17, 1:00 PM)29.74 "Hg (Jul 12, 5:00 AM)
Average59 °F86%30.07 "Hg
* Reported Jul 8 7:00 AM — Jul 23 7:00 AM, Florianópolis, Weather by CustomWeather, © 2016

Note: Actual official high and low records may vary slightly from our data, if they occured in-between our weather recording intervals... More about our weather records

Advertising

Florianópolis Weather History for the Previous 24 Hours

Scroll right to see more
 ConditionsComfort  
Time TempWeatherWind HumidityBarometerVisibility
7:00 AM
Sat, Jul 23
54 °FSunny.8 mph100%30.18 "Hg10 mi
6:00 AM55 °FSunny.9 mph94%30.18 "Hg10 mi
5:00 AM52 °FClear.6 mph100%30.18 "Hg10 mi
4:00 AM52 °FClear.6 mph100%30.21 "Hg10 mi
3:00 AM54 °FClear.6 mph94%30.21 "Hg10 mi
2:00 AM54 °FClear.6 mph100%30.21 "Hg10 mi
1:00 AM55 °FClear.7 mph100%30.21 "Hg10 mi
12:00 AM55 °FClear.6 mph94%30.21 "Hg10 mi
11:00 PM
Fri, Jul 22
50 °FClear.No wind100%30.24 "Hg10 mi
10:00 PM50 °FClear.No wind100%30.21 "Hg10 mi
9:00 PM50 °FPassing clouds.No wind100%30.21 "HgN/A
8:00 PM54 °FPassing clouds.2 mph94%30.21 "HgN/A
7:00 PM55 °FPassing clouds.No wind88%30.18 "HgN/A
6:00 PM57 °FPassing clouds.1 mph82%30.18 "HgN/A
5:00 PM61 °FPassing clouds.2 mph77%30.18 "HgN/A
4:00 PM63 °FPassing clouds.10 mph73%30.18 "HgN/A
3:00 PM63 °FPassing clouds.9 mph73%30.18 "HgN/A
2:00 PM63 °FPassing clouds.13 mph73%30.21 "HgN/A
1:00 PM64 °FPassing clouds.5 mph64%30.21 "HgN/A
12:00 PM63 °FSunny.8 mph68%30.24 "Hg10 mi
11:00 AM59 °FSunny.6 mph82%30.27 "Hg10 mi
10:00 AM57 °FSunny.3 mph94%30.27 "Hg10 mi
9:00 AM55 °FPassing clouds.No wind94%30.27 "HgN/A
8:00 AM48 °FSunny.1 mph94%30.27 "Hg10 mi
Weather by CustomWeather, © 2016

See weather overviewHow to use our weather pages